User: anonymous   Login
Location: Mount Graham
(32.7016°N, 109.8912°W)
Time: 21:04:16
(UTC-07:00)
Language:

Cosmos 1340 - Orbit

View from above orbital plane
View from above orbital plane
View from above satellite
View from above satellite

Ground track
Ground track

The orbit data is extracted from the following two-line orbital elements,

1 13067U 82013A   16209.93031810 +.00001170 +00000-0 +55382-4 0  9990
2 13067 081.1883 152.1764 0003473 159.8174 267.5928 15.18595911878317
Epoch (UTC): 27 July 2016 22:19:39
Eccentricity: 0.0003473
inclination: 81.1883°
perigee height: 507 km
apogee height: 512 km
right ascension of ascending node: 152.1764°
argument of perigee: 159.8174°
revolutions per day: 15.18595911
mean anomaly at epoch: 267.5928°
orbit number at epoch: 87831

The dashed part of the orbit path shows where the satellite is in the earth's shadow,  

DLR